Location: Cz?stochówka
(50.8142°N, 19.0915°E)
Time: 08:27:53
(UTC+00:00)

CZ-4C R/B - Pass Details

Date: 13 January 2026
Orbit: 482 x 1496 km, 63.4° (Epoch: 17 February)

Event Time Altitude Azimuth Distance (km) Brightness Sun altitude
Exits shadow 03:35:14 25° 356° (N) 1,711 3.7 -28.5°
Drops below altitude 10° 03:40:38 10° 50° (NE) 2,877 5.5 -27.7°
Sets 03:44:11 0° 63° (ENE) 4,029 6.6 -27.1°
